Weather observations for the past three days for
Coeur d'Alene Airport - Pappy Boyington Field
Imperial (Metric)
Date Time (pdt) Wind (mph) Vis. (mi.) Weather Sky Cond. Temperature (ºF) Relative Humidity Wind Chill (°F) Heat Index (°F) Pressure Precipitation (in)
Air Dwpt 6 hour altimeter (in) sea level (mb) 1 hr 3 hr 6 hr
Max. Min.
23 09:56 Vrbl 6 10.00 Fair CLR 70 46.9 44% 30.12 1019.7
23 08:56 W 6 10.00 Fair CLR 68 46.9 47% 30.13 1019.8
23 07:56 W 9 10.00 Fair CLR 66 46.9 50% 30.11 1019.2
23 06:56 SW 9 10.00 Fair CLR 63 46 54% 30.1 1018.7
23 05:56 S 3 10.00 Fair CLR 62.1 46.9 58% 30.08 1018.0
23 04:56 SW 5 10.00 Fair CLR 64 48.9 80.1 64 58% 30.07 1017.5
23 03:56 S 5 10.00 Fair CLR 66 51.1 59% 30.04 1016.5
23 02:56 W 8 10.00 Fair CLR 68 52 57% 30.02 1015.8
23 01:56 S 7 10.00 Fair CLR 73.9 53.1 48% 29.99 1014.5
23 00:56 W 5 10.00 Fair CLR 75 53.1 46% 78 29.98 1014.1
22 23:56 SW 8 10.00 Fair CLR 79 52 39% 79 29.96 1013.4
22 22:56 W 12 10.00 Overcast BKN036 OVC046 80.1 53.1 97 79 39% 80 29.93 1012.7
22 21:56 SW 8 10.00 Fair CLR 81 57 44% 81 29.9 1011.7
22 20:56 W 3 10.00 Fair CLR 81 57.9 45% 81 29.86 1010.4
22 19:56 N 3 10.00 Fair CLR 89.1 60.1 38% 89 29.85 1009.6
22 18:56 E 7 5.00 Fair with Haze CLR 95 57 28% 94 29.85 1009.5
22 17:56 S 7 10.00 Fair CLR 96.1 53.1 23% 94 29.86 1010.0
22 16:56 Vrbl 6 9.00 Fair CLR 96.1 53.1 98.1 81 23% 94 29.88 1010.6
22 15:56 Calm 10.00 Fair CLR 96.1 52 23% 93 29.89 1011.2
22 14:56 Calm 10.00 Fair CLR 93 55 28% 91 29.92 1012.1
22 13:56 Calm 8.00 Fair CLR 91 55 30% 89 29.94 1012.9
22 12:56 Calm 10.00 Fair CLR 88 54 31% 86 29.96 1013.4
22 11:56 Vrbl 5 8.00 Fair CLR 86 55 35% 84 29.96 1013.6
22 10:56 NE 12 10.00 Fair CLR 81 57 82 69.1 44% 81 29.96 1013.6
22 09:56 E 3 10.00 Fair CLR 80.1 55.9 44% 80 29.99 1014.6
22 08:56 W 6 10.00 Fair CLR 78.1 57 48% 79 29.99 1014.5
22 07:56 Calm 10.00 Fair CLR 75 59 58% 77 29.98 1014.2
22 06:56 E 7 10.00 A Few Clouds FEW003 73 57.9 59% 29.96 1013.4
22 05:56 SE 6 10.00 Fair CLR 70 59 68% 29.96 1013.4
22 04:56 E 5 10.00 Fair CLR 70 55.9 79 70 61% 29.95 1013.1
22 03:56 NE 6 10.00 Fair CLR 70 55.9 61% 29.95 1012.9
22 02:56 NE 3 10.00 Fair CLR 72 57 59% 29.95 1012.7
22 01:56 E 5 10.00 Fair CLR 73.9 57.9 57% 29.94 1012.6
22 00:56 E 9 10.00 Fair CLR 75 53.1 46% 78 29.95 1012.7
21 23:56 E 7 10.00 Fair CLR 77 54 45% 78 29.95 1012.8
21 22:56 E 8 10.00 Fair CLR 79 53.1 102 79 41% 79 29.94 1012.7
21 21:56 NE 7 10.00 Fair CLR 82 54 38% 81 29.94 1012.6
21 20:56 NE 8 10.00 Fair CLR 87.1 54 32% 85 29.94 1012.6
21 19:56 N 9 10.00 Fair CLR 87.1 55.9 35% 86 29.93 1012.4
21 18:56 N 8 10.00 Fair CLR 98.1 52 21% 95 29.93 1012.0
21 17:56 N 12 10.00 Fair CLR 100 50 18% 97 29.93 1012.3
21 16:56 N 10 10.00 Fair CLR 102 48.9 102.9 91 17% 99 29.95 1012.6
21 15:56 NE 15 10.00 Fair CLR 102 50 17% 99 29.95 1012.9
21 14:56 N 14 10.00 Fair CLR 100.9 53.1 20% 99 29.97 1013.5
21 13:56 N 13 10.00 Fair CLR 100 52 20% 97 29.99 1014.1
21 12:56 N 14 10.00 Fair CLR 98.1 53.1 22% 96 30 1014.7
21 11:56 N 15 10.00 Fair CLR 95 55.9 27% 93 30.03 1015.6
21 10:56 N 15 10.00 Fair CLR 91 55.9 91 72 31% 89 30.04 1016.2
21 09:56 N 16 10.00 Fair CLR 87.1 55 34% 85 30.05 1016.7
21 08:56 N 17 10.00 Fair CLR 81 55 41% 81 30.06 1017.0
21 07:56 N 15 10.00 Fair CLR 78.1 53.1 42% 79 30.07 1017.2
21 06:56 N 16 10.00 Fair CLR 75 52 45% 78 30.07 1017.0
21 05:56 N 15 10.00 NULL NULL 72 50 46% 30.06 1016.8
21 04:56 N 15 10.00 NULL NULL 72 52 75.9 69.1 50% 30.06 1016.7
21 03:56 NE 16 10.00 NULL NULL 72 54 53% 30.05 1016.5
21 02:56 NE 12 10.00 NULL NULL 71.1 54 55% 30.05 1016.6
21 01:56 E 10 10.00 NULL NULL 72 54 53% 30.06 1016.9
21 00:56 NE 7 10.00 NULL NULL 71.1 53.1 53% 30.06 1017.1
20 23:56 E 5 10.00 NULL NULL 73.9 57.9 57% 30.06 1017.2
20 22:56 NE 7 10.00 NULL NULL 75.9 54 98.1 75.9 47% 78 30.06 1017.1
20 21:56 NE 7 10.00 NULL NULL 77 57.9 52% 79 30.06 1017.3
20 20:56 NE 6 10.00 NULL NULL 84.9 54 35% 83 30.07 1017.4
20 19:56 N 6 10.00 NULL NULL 87.1 57 36% 86 30.06 1017.4
20 18:56 N 6 10.00 NULL NULL 93.9 54 26% 92 30.07 1017.4
20 17:56 N 8 10.00 NULL NULL 97 50 20% 94 30.07 1017.7
20 16:56 N 9 10.00 NULL NULL 97 50 98.1 84.9 20% 94 30.09 1018.2
20 15:56 Vrbl 7 10.00 NULL NULL 98.1 48.9 19% 95 30.11 1018.8
20 14:56 Vrbl 6 10.00 NULL NULL 96.1 51.1 22% 93 30.12 1019.0
20 13:56 Vrbl 5 9.00 NULL NULL 95 52 23% 92 30.14 1019.6
20 12:56 N 7 10.00 NULL NULL 91.9 52 26% 89 30.16 1020.7
20 11:56 Vrbl 3 10.00 NULL NULL 88 53.1 30% 86 30.18 1021.1
Date Time (pdt) Wind (mph) Vis. (mi.) Weather Sky Cond. Air Dwpt Max. Min. Relative Humidity Wind Chill (°F) Heat Index (°F) altimeter (in) sea level (mb) 1 hr 3 hr 6 hr
6 hour
Temperature (ºF) Pressure Precipitation (in)